20040405,000019,1123209,33.536750,-122.390920,14.758,33.056,NaN,NaN
20040405,000049,1123238,33.536130,-122.392390,14.771,33.052,NaN,NaN
20040405,000119,1123269,33.535530,-122.393870,14.783,33.048,NaN,NaN
20040405,000149,1123299,33.534910,-122.395360,14.792,33.044,NaN,NaN
20040405,000219,1123329,33.534290,-122.396840,14.796,33.042,NaN,NaN
20040405,000249,1123359,33.533700,-122.398320,14.799,33.040,NaN,NaN
20040405,000319,1123389,33.533080,-122.399800,14.802,33.039,NaN,NaN
20040405,000349,1123418,33.532480,-122.401290,14.810,33.037,NaN,NaN
20040405,000419,1123449,33.531870,-122.402770,14.820,33.035,NaN,NaN
20040405,000449,1123479,33.531280,-122.404270,14.834,33.033,NaN,NaN
20040405,000519,1123509,33.530710,-122.405740,14.844,33.029,NaN,NaN
20040405,000549,1123539,33.530110,-122.407200,14.853,33.027,NaN,NaN
20040405,000619,1123569,33.529500,-122.408690,14.861,33.025,NaN,NaN
20040405,000649,1123599,33.528930,-122.410180,14.858,33.024,NaN,NaN
20040405,000720,1123630,33.528320,-122.411700,14.853,33.023,NaN,NaN
20040405,000750,1123659,33.527730,-122.413180,14.845,33.018,NaN,NaN
20040405,000819,1123689,33.527170,-122.414620,14.834,33.021,NaN,NaN
20040405,000850,1123720,33.526550,-122.416150,14.821,33.020,NaN,NaN
20040405,000920,1123750,33.525960,-122.417640,14.807,33.019,NaN,NaN
20040405,000950,1123780,33.525380,-122.419120,14.793,33.019,NaN,NaN
20040405,001019,1123809,33.524800,-122.420540,14.785,33.019,NaN,NaN
20040405,001049,1123839,33.524220,-122.422010,14.781,33.020,NaN,NaN
20040405,001120,1123870,33.523600,-122.423530,14.779,33.020,NaN,NaN
20040405,001149,1123899,33.523050,-122.424960,14.773,33.021,NaN,NaN
20040405,001220,1123930,33.522420,-122.426480,14.773,33.019,NaN,NaN
20040405,001250,1123960,33.521830,-122.427950,14.767,33.024,NaN,NaN
20040405,001320,1123989,33.521240,-122.429430,14.766,33.025,NaN,NaN
20040405,001350,1124020,33.520650,-122.430900,14.760,33.027,NaN,NaN
20040405,001420,1124050,33.520070,-122.432390,14.752,33.028,NaN,NaN
20040405,001450,1124080,33.519460,-122.433870,14.746,33.029,NaN,NaN
20040405,001520,1124110,33.518890,-122.435330,14.732,33.030,NaN,NaN
20040405,001550,1124140,33.518290,-122.436800,14.720,33.031,NaN,NaN
20040405,001620,1124169,33.517710,-122.438280,14.707,33.032,NaN,NaN
20040405,001650,1124200,33.517120,-122.439760,14.694,33.032,NaN,NaN
20040405,001719,1124229,33.516540,-122.441200,14.685,33.032,NaN,NaN
20040405,001749,1124258,33.515980,-122.442690,14.678,33.034,NaN,NaN
20040405,001819,1124289,33.515420,-122.444170,14.667,33.034,NaN,NaN
20040405,001850,1124320,33.514820,-122.445720,14.656,33.034,NaN,NaN
20040405,001920,1124350,33.514260,-122.447230,14.648,33.034,NaN,NaN
20040405,001950,1124380,33.513680,-122.448780,14.641,33.035,NaN,NaN
20040405,002020,1124410,33.513090,-122.450350,14.637,33.035,NaN,NaN
20040405,002050,1124440,33.512500,-122.451920,14.632,33.035,NaN,NaN
20040405,002120,1124470,33.511910,-122.453510,14.627,33.037,NaN,NaN
20040405,002150,1124499,33.511320,-122.455090,14.623,33.037,NaN,NaN
20040405,002220,1124530,33.510730,-122.456670,14.622,33.037,NaN,NaN
20040405,002250,1124560,33.510150,-122.458250,14.618,33.037,NaN,NaN
20040405,002320,1124590,33.509570,-122.459820,14.613,33.036,NaN,NaN
20040405,002350,1124620,33.509010,-122.461380,14.613,33.037,NaN,NaN
20040405,002420,1124650,33.508440,-122.462950,14.613,33.037,NaN,NaN
20040405,002450,1124680,33.507840,-122.464500,14.608,33.037,NaN,NaN
20040405,002520,1124710,33.507290,-122.466080,14.606,33.037,NaN,NaN
20040405,002550,1124740,33.506730,-122.467640,14.602,33.035,NaN,NaN
20040405,002620,1124770,33.506160,-122.469200,14.601,33.038,NaN,NaN
20040405,002650,1124800,33.505590,-122.470840,14.597,33.039,NaN,NaN
20040405,002721,1124831,33.505050,-122.472360,14.595,33.035,NaN,NaN
20040405,002750,1124860,33.504500,-122.473930,14.597,33.040,NaN,NaN
20040405,002820,1124890,33.503900,-122.475490,14.593,33.038,NaN,NaN
20040405,002850,1124920,33.503350,-122.477050,14.587,33.038,NaN,NaN
20040405,002921,1124951,33.502780,-122.478610,14.590,33.039,NaN,NaN
20040405,002950,1124980,33.502210,-122.480180,14.590,33.038,NaN,NaN
20040405,003020,1125009,33.501660,-122.481750,14.590,33.039,NaN,NaN
20040405,003050,1125040,33.501080,-122.483320,14.595,33.039,NaN,NaN
20040405,003120,1125070,33.500520,-122.484880,14.600,33.039,NaN,NaN
20040405,003150,1125100,33.499970,-122.486430,14.602,33.038,NaN,NaN
20040405,003220,1125130,33.499410,-122.487970,14.609,33.037,NaN,NaN
20040405,003250,1125160,33.498850,-122.489520,14.607,33.037,NaN,NaN
20040405,003320,1125190,33.498290,-122.491060,14.606,33.035,NaN,NaN
20040405,003350,1125220,33.497740,-122.492590,14.604,33.035,NaN,NaN
20040405,003420,1125250,33.497180,-122.494140,14.610,33.035,NaN,NaN
20040405,003450,1125280,33.496610,-122.495680,14.614,33.035,NaN,NaN
20040405,003520,1125310,33.496020,-122.497220,14.619,33.035,NaN,NaN
20040405,003550,1125339,33.495440,-122.498780,14.627,33.035,NaN,NaN
20040405,003620,1125370,33.494830,-122.500340,14.637,33.036,NaN,NaN
20040405,003650,1125400,33.494230,-122.501920,14.646,33.037,NaN,NaN
20040405,003720,1125430,33.493640,-122.503480,14.654,33.038,NaN,NaN
20040405,003750,1125460,33.493030,-122.505050,14.665,33.039,NaN,NaN
20040405,003820,1125490,33.492420,-122.506620,14.673,33.040,NaN,NaN
20040405,003850,1125519,33.491810,-122.508190,14.684,33.041,NaN,NaN
20040405,003921,1125551,33.491220,-122.509820,14.696,33.045,NaN,NaN
20040405,003950,1125580,33.490650,-122.511340,14.714,33.053,NaN,NaN
20040405,004020,1125610,33.490050,-122.512910,14.723,33.062,NaN,NaN
20040405,004050,1125640,33.489450,-122.514480,14.715,33.069,NaN,NaN
20040405,004121,1125671,33.488870,-122.516030,14.687,33.073,NaN,NaN
20040405,004151,1125701,33.488290,-122.517590,14.653,33.073,NaN,NaN
20040405,004220,1125730,33.487700,-122.519150,14.606,33.071,NaN,NaN
20040405,004250,1125760,33.487130,-122.520710,14.565,33.070,NaN,NaN
20040405,004320,1125790,33.486550,-122.522260,14.540,33.069,NaN,NaN
20040405,004350,1125820,33.485970,-122.523820,14.512,33.068,NaN,NaN
20040405,004420,1125849,33.485380,-122.525380,14.493,33.067,NaN,NaN
20040405,004451,1125881,33.484840,-122.526950,14.475,33.067,NaN,NaN
20040405,004521,1125911,33.484250,-122.528490,14.460,33.067,NaN,NaN
20040405,004550,1125940,33.483780,-122.529860,14.448,33.067,NaN,NaN
20040405,004621,1125971,33.483680,-122.530710,14.434,33.067,NaN,NaN
20040405,004651,1126001,33.483740,-122.531170,14.430,33.067,NaN,NaN
20040405,004721,1126031,33.483820,-122.531470,14.426,33.067,NaN,NaN
20040405,004751,1126061,33.483930,-122.531610,14.426,33.067,NaN,NaN
20040405,004821,1126091,33.484020,-122.531740,14.427,33.067,NaN,NaN
20040405,004852,1126122,33.484070,-122.531920,14.432,33.067,NaN,NaN
20040405,004922,1126152,33.484140,-122.532090,14.438,33.067,NaN,NaN
20040405,004951,1126181,33.484180,-122.532250,14.447,33.065,NaN,NaN
20040405,005021,1126211,33.484190,-122.532370,14.454,33.063,NaN,NaN
20040405,005051,1126241,33.484220,-122.532490,14.465,33.060,NaN,NaN
20040405,005121,1126270,33.484260,-122.532600,14.474,33.059,NaN,NaN
20040405,005151,1126301,33.484260,-122.532690,14.481,33.056,NaN,NaN
20040405,005221,1126331,33.484280,-122.532760,14.485,33.056,NaN,NaN
20040405,005251,1126361,33.484320,-122.532880,14.490,33.046,NaN,NaN
20040405,005321,1126391,33.484380,-122.532990,14.493,33.048,NaN,NaN
20040405,005351,1126421,33.484420,-122.533100,14.495,33.054,NaN,NaN
20040405,005421,1126451,33.484470,-122.533270,14.496,33.056,NaN,NaN
20040405,005451,1126481,33.484540,-122.533430,14.499,33.053,NaN,NaN
20040405,005521,1126511,33.484580,-122.533560,14.500,33.052,NaN,NaN
20040405,005551,1126541,33.484630,-122.533650,14.499,33.055,NaN,NaN
20040405,005621,1126571,33.484660,-122.533740,14.501,33.048,NaN,NaN
20040405,005651,1126600,33.484700,-122.533870,14.505,33.056,NaN,NaN
20040405,005721,1126631,33.484730,-122.533970,14.508,33.056,NaN,NaN
20040405,005751,1126661,33.484750,-122.534090,14.510,33.057,NaN,NaN
20040405,005821,1126691,33.484750,-122.534180,14.511,33.058,NaN,NaN
20040405,005851,1126721,33.484740,-122.534270,14.513,33.057,NaN,NaN
20040405,005921,1126751,33.484760,-122.534380,14.514,33.058,NaN,NaN
20040405,005951,1126780,33.484770,-122.534490,14.513,33.053,NaN,NaN
20040405,010021,1126811,33.484760,-122.534580,14.515,33.061,NaN,NaN
20040405,010051,1126841,33.484740,-122.534640,14.516,33.062,NaN,NaN
20040405,010121,1126871,33.484690,-122.534700,14.516,33.063,NaN,NaN
20040405,010151,1126901,33.484680,-122.534780,14.517,33.064,NaN,NaN
20040405,010221,1126931,33.484640,-122.534870,14.516,33.064,NaN,NaN
20040405,010251,1126961,33.484620,-122.534930,14.516,33.065,NaN,NaN
20040405,010321,1126991,33.484580,-122.534990,14.514,33.066,NaN,NaN
20040405,010351,1127021,33.484540,-122.535060,14.512,33.065,NaN,NaN
20040405,010421,1127051,33.484510,-122.535130,14.509,33.063,NaN,NaN
20040405,010451,1127081,33.484470,-122.535180,14.507,33.059,NaN,NaN
20040405,010521,1127110,33.484430,-122.535220,14.503,33.059,NaN,NaN
20040405,010551,1127141,33.484400,-122.535240,14.503,33.058,NaN,NaN
20040405,010621,1127171,33.484350,-122.535290,14.503,33.057,NaN,NaN
20040405,010651,1127201,33.484330,-122.535340,14.504,33.053,NaN,NaN
20040405,010721,1127231,33.484290,-122.535390,14.505,33.043,NaN,NaN
20040405,010751,1127261,33.484250,-122.535450,14.507,33.043,NaN,NaN
20040405,010821,1127291,33.484230,-122.535490,14.505,33.042,NaN,NaN
20040405,010851,1127321,33.484230,-122.535540,14.503,33.045,NaN,NaN
20040405,010921,1127351,33.484210,-122.535610,14.503,33.047,NaN,NaN
20040405,010951,1127381,33.484180,-122.535660,14.503,33.046,NaN,NaN
20040405,011021,1127411,33.484130,-122.535720,14.507,33.036,NaN,NaN
20040405,011051,1127441,33.484110,-122.535830,14.504,33.032,NaN,NaN
20040405,011122,1127472,33.484090,-122.535920,14.504,33.033,NaN,NaN
20040405,011151,1127501,33.484070,-122.535970,14.507,33.034,NaN,NaN
20040405,011221,1127531,33.484020,-122.536030,14.507,33.012,NaN,NaN
20040405,011252,1127562,33.483980,-122.536080,14.510,32.967,NaN,NaN
20040405,011321,1127591,33.483940,-122.536130,14.513,32.977,NaN,NaN
20040405,011352,1127622,33.483910,-122.536230,14.511,32.993,NaN,NaN
20040405,011421,1127651,33.483870,-122.536290,14.511,33.005,NaN,NaN
20040405,011451,1127681,33.483810,-122.536350,14.510,33.010,NaN,NaN
20040405,011521,1127711,33.483770,-122.536430,14.508,33.009,NaN,NaN
20040405,011552,1127742,33.483740,-122.536510,14.509,33.005,NaN,NaN
20040405,011622,1127772,33.483700,-122.536600,14.507,33.021,NaN,NaN
20040405,011651,1127801,33.483700,-122.536670,14.504,33.032,NaN,NaN
20040405,011721,1127831,33.483660,-122.536750,14.501,33.036,NaN,NaN
20040405,011752,1127861,33.483630,-122.536810,14.499,33.039,NaN,NaN
20040405,011822,1127892,33.483600,-122.536870,14.498,33.047,NaN,NaN
20040405,011852,1127922,33.483560,-122.536930,14.497,33.051,NaN,NaN
20040405,011922,1127952,33.483510,-122.536960,14.496,33.053,NaN,NaN
20040405,011952,1127982,33.483460,-122.536990,14.495,33.056,NaN,NaN
20040405,012022,1128012,33.483430,-122.537040,14.494,33.059,NaN,NaN
20040405,012052,1128041,33.483430,-122.537120,14.493,33.058,NaN,NaN
20040405,012122,1128072,33.483460,-122.537170,14.494,33.055,NaN,NaN
20040405,012152,1128102,33.483520,-122.537210,14.494,33.054,NaN,NaN
20040405,012222,1128132,33.483590,-122.537230,14.494,33.049,NaN,NaN
20040405,012252,1128162,33.483660,-122.537300,14.493,33.042,NaN,NaN
20040405,012322,1128192,33.483730,-122.537380,14.494,33.044,NaN,NaN
20040405,012352,1128222,33.483770,-122.537460,14.492,33.038,NaN,NaN
20040405,012422,1128252,33.483780,-122.537560,14.493,33.026,NaN,NaN
20040405,012452,1128282,33.483800,-122.537670,14.493,33.027,NaN,NaN
20040405,012522,1128312,33.483800,-122.537740,14.493,33.024,NaN,NaN
20040405,012552,1128342,33.483830,-122.537840,14.494,33.026,NaN,NaN
20040405,012622,1128371,33.483890,-122.537910,14.493,33.035,NaN,NaN
20040405,012652,1128402,33.483940,-122.537970,14.493,33.035,NaN,NaN
20040405,012722,1128432,33.483960,-122.538060,14.494,33.031,NaN,NaN
20040405,012752,1128462,33.483980,-122.538120,14.494,33.033,NaN,NaN
20040405,012822,1128492,33.483980,-122.538200,14.494,33.038,NaN,NaN
20040405,012852,1128522,33.484000,-122.538310,14.492,33.042,NaN,NaN
20040405,012922,1128552,33.484010,-122.538380,14.493,33.045,NaN,NaN
20040405,012952,1128582,33.484020,-122.538430,14.493,33.045,NaN,NaN
20040405,013022,1128612,33.484050,-122.538480,14.494,33.049,NaN,NaN
20040405,013052,1128642,33.484100,-122.538540,14.494,33.051,NaN,NaN
20040405,013122,1128672,33.484140,-122.538580,14.493,33.050,NaN,NaN
20040405,013152,1128701,33.484140,-122.538630,14.493,33.050,NaN,NaN
20040405,013222,1128732,33.484150,-122.538730,14.493,33.051,NaN,NaN
20040405,013252,1128762,33.484150,-122.538840,14.490,33.047,NaN,NaN
20040405,013322,1128792,33.484150,-122.538970,14.491,33.041,NaN,NaN
20040405,013353,1128823,33.484160,-122.539090,14.490,33.045,NaN,NaN
20040405,013423,1128853,33.484160,-122.539180,14.489,33.048,NaN,NaN
20040405,013453,1128883,33.484130,-122.539250,14.489,33.034,NaN,NaN
20040405,013523,1128913,33.484140,-122.539300,14.489,33.031,NaN,NaN
20040405,013553,1128943,33.484170,-122.539380,14.489,33.038,NaN,NaN
20040405,013623,1128973,33.484230,-122.539450,14.491,33.038,NaN,NaN
20040405,013653,1129003,33.484270,-122.539480,14.492,33.043,NaN,NaN
20040405,013723,1129033,33.484260,-122.539540,14.492,33.047,NaN,NaN
20040405,013753,1129063,33.484260,-122.539640,14.493,33.050,NaN,NaN
20040405,013823,1129093,33.484290,-122.539740,14.493,33.052,NaN,NaN
20040405,013852,1129122,33.484290,-122.539820,14.493,33.050,NaN,NaN
20040405,013922,1129152,33.484290,-122.539870,14.492,33.046,NaN,NaN
20040405,013953,1129183,33.484310,-122.539880,14.492,33.046,NaN,NaN
20040405,014022,1129211,33.484360,-122.539870,14.493,33.029,NaN,NaN
20040405,014053,1129243,33.484450,-122.539880,14.495,32.980,NaN,NaN
20040405,014122,1129272,33.484540,-122.539870,14.498,32.961,NaN,NaN
20040405,014153,1129302,33.484600,-122.539860,14.497,32.976,NaN,NaN
20040405,014222,1129332,33.484620,-122.539860,14.495,32.989,NaN,NaN
20040405,014252,1129362,33.484630,-122.539850,14.494,33.004,NaN,NaN
20040405,014322,1129391,33.484620,-122.539900,14.494,33.017,NaN,NaN
20040405,014352,1129422,33.484610,-122.540000,14.494,33.025,NaN,NaN
20040405,014423,1129453,33.484620,-122.540110,14.493,33.033,NaN,NaN
20040405,014453,1129483,33.484630,-122.540210,14.492,33.035,NaN,NaN
20040405,014522,1129512,33.484650,-122.540260,14.493,33.025,NaN,NaN
20040405,014553,1129543,33.484680,-122.540330,14.493,33.008,NaN,NaN
20040405,014623,1129573,33.484760,-122.540390,14.493,33.018,NaN,NaN
20040405,014653,1129603,33.484860,-122.540480,14.491,33.029,NaN,NaN
20040405,014722,1129632,33.484940,-122.540650,14.489,33.035,NaN,NaN
20040405,014753,1129663,33.485020,-122.540870,14.488,33.036,NaN,NaN
20040405,014822,1129692,33.485110,-122.541120,14.487,33.038,NaN,NaN
20040405,014853,1129723,33.485240,-122.541320,14.486,33.032,NaN,NaN
20040405,014922,1129752,33.485330,-122.541450,14.487,33.016,NaN,NaN
20040405,014952,1129782,33.485400,-122.541520,14.487,33.020,NaN,NaN
20040405,015022,1129812,33.485490,-122.541620,14.489,33.030,NaN,NaN
20040405,015052,1129842,33.485570,-122.541720,14.488,33.033,NaN,NaN
20040405,015122,1129872,33.485620,-122.541840,14.486,33.035,NaN,NaN
20040405,015153,1129903,33.485690,-122.542020,14.483,33.030,NaN,NaN
20040405,015222,1129932,33.485750,-122.542170,14.483,33.041,NaN,NaN
20040405,015253,1129962,33.485810,-122.542290,14.482,33.037,NaN,NaN
20040405,015323,1129993,33.485890,-122.542400,14.483,33.040,NaN,NaN
20040405,015353,1130023,33.485990,-122.542500,14.482,33.045,NaN,NaN
20040405,015422,1130051,33.486090,-122.542610,14.481,33.042,NaN,NaN
20040405,015452,1130082,33.486180,-122.542760,14.482,33.041,NaN,NaN
20040405,015522,1130112,33.486290,-122.542920,14.480,33.045,NaN,NaN
20040405,015552,1130142,33.486400,-122.543090,14.480,33.048,NaN,NaN
20040405,015622,1130172,33.486510,-122.543260,14.478,33.049,NaN,NaN
20040405,015652,1130202,33.486630,-122.543420,14.477,33.051,NaN,NaN
20040405,015723,1130233,33.486750,-122.543570,14.475,33.053,NaN,NaN
20040405,015752,1130262,33.486870,-122.543710,14.474,33.056,NaN,NaN
20040405,015822,1130292,33.486980,-122.543870,14.475,33.058,NaN,NaN
20040405,015853,1130323,33.487100,-122.544030,14.473,33.060,NaN,NaN
20040405,015922,1130352,33.487210,-122.544210,14.473,33.060,NaN,NaN
20040405,015952,1130382,33.487330,-122.544360,14.469,33.059,NaN,NaN
20040405,020022,1130412,33.487450,-122.544510,14.461,33.056,NaN,NaN
20040405,020053,1130443,33.487540,-122.544670,14.453,33.056,NaN,NaN
20040405,020123,1130472,33.487630,-122.544840,14.444,33.056,NaN,NaN
20040405,020152,1130502,33.487730,-122.545010,14.402,33.054,NaN,NaN
20040405,020222,1130532,33.487840,-122.545170,14.305,33.047,NaN,NaN
20040405,020252,1130561,33.487970,-122.545340,14.232,33.047,NaN,NaN
20040405,020322,1130592,33.488070,-122.545510,14.186,33.039,NaN,NaN
20040405,020352,1130622,33.488170,-122.545710,14.154,33.046,NaN,NaN
20040405,020422,1130652,33.488290,-122.545890,14.131,33.054,NaN,NaN
20040405,020452,1130682,33.488410,-122.546070,14.116,33.057,NaN,NaN
20040405,020523,1130713,33.488520,-122.546240,14.104,33.056,NaN,NaN
20040405,020552,1130741,33.488640,-122.546410,14.094,33.060,NaN,NaN
20040405,020622,1130772,33.488770,-122.546590,14.085,33.061,NaN,NaN
20040405,020653,1130803,33.488870,-122.546770,14.079,33.058,NaN,NaN
20040405,020722,1130832,33.488950,-122.546950,14.073,33.056,NaN,NaN
20040405,020752,1130862,33.489020,-122.547150,14.071,33.054,NaN,NaN
20040405,020822,1130892,33.489110,-122.547310,14.065,33.052,NaN,NaN
20040405,020853,1130923,33.489210,-122.547450,14.061,33.052,NaN,NaN
20040405,020923,1130953,33.489330,-122.547580,14.061,33.045,NaN,NaN
20040405,020952,1130982,33.489430,-122.547740,14.057,33.049,NaN,NaN
20040405,021022,1131012,33.489530,-122.547920,14.056,33.054,NaN,NaN
20040405,021052,1131042,33.489610,-122.548100,14.056,33.056,NaN,NaN
20040405,021123,1131073,33.489720,-122.548260,14.055,33.057,NaN,NaN
20040405,021152,1131102,33.489840,-122.548420,14.056,33.059,NaN,NaN
20040405,021222,1131132,33.489960,-122.548580,14.055,33.060,NaN,NaN
20040405,021252,1131162,33.490060,-122.548770,14.055,33.059,NaN,NaN
20040405,021322,1131192,33.490150,-122.548960,14.054,33.061,NaN,NaN
20040405,021352,1131222,33.490270,-122.549150,14.053,33.062,NaN,NaN
20040405,021422,1131252,33.490410,-122.549350,14.050,33.061,NaN,NaN
20040405,021452,1131282,33.490530,-122.549670,14.046,33.063,NaN,NaN
20040405,021522,1131312,33.490490,-122.550090,14.048,33.061,NaN,NaN
20040405,021553,1131343,33.490450,-122.550530,14.044,33.061,NaN,NaN
20040405,021623,1131373,33.490440,-122.550950,14.044,33.062,NaN,NaN
20040405,021653,1131403,33.490480,-122.551340,14.041,33.062,NaN,NaN
20040405,021722,1131432,33.490520,-122.551720,14.041,33.063,NaN,NaN
20040405,021752,1131462,33.490540,-122.552110,14.040,33.063,NaN,NaN
20040405,021823,1131492,33.490570,-122.552500,14.041,33.064,NaN,NaN
20040405,021852,1131522,33.490610,-122.552900,14.039,33.063,NaN,NaN
20040405,021922,1131552,33.490670,-122.553310,14.039,33.064,NaN,NaN
20040405,021952,1131581,33.490730,-122.553710,14.039,33.062,NaN,NaN
20040405,022023,1131613,33.490770,-122.554090,14.041,33.058,NaN,NaN
20040405,022052,1131642,33.490780,-122.554430,14.041,33.056,NaN,NaN
20040405,022122,1131672,33.490800,-122.554680,14.042,33.058,NaN,NaN
20040405,022152,1131702,33.490790,-122.554880,14.041,33.061,NaN,NaN
20040405,022222,1131732,33.490750,-122.555050,14.039,33.062,NaN,NaN
20040405,022252,1131762,33.490690,-122.555190,14.040,33.063,NaN,NaN
20040405,022322,1131792,33.490610,-122.555300,14.040,33.059,NaN,NaN
20040405,022352,1131822,33.490530,-122.555420,14.042,33.059,NaN,NaN
20040405,022422,1131852,33.490450,-122.555570,14.040,33.061,NaN,NaN
20040405,022453,1131883,33.490380,-122.555730,14.043,33.061,NaN,NaN
20040405,022523,1131913,33.490320,-122.555890,14.047,33.059,NaN,NaN
20040405,022552,1131942,33.490270,-122.556060,14.048,33.057,NaN,NaN
20040405,022622,1131972,33.490220,-122.556240,14.053,33.057,NaN,NaN
20040405,022652,1132002,33.490160,-122.556430,14.062,33.059,NaN,NaN
20040405,022722,1132032,33.490120,-122.556640,14.068,33.059,NaN,NaN
20040405,022752,1132062,33.490080,-122.556870,14.074,33.059,NaN,NaN
20040405,022823,1132093,33.490030,-122.557100,14.098,33.056,NaN,NaN
20040405,022852,1132122,33.490000,-122.557340,14.141,33.058,NaN,NaN
20040405,022922,1132152,33.489960,-122.557590,14.174,33.057,NaN,NaN
20040405,022952,1132182,33.489930,-122.557840,14.203,33.057,NaN,NaN
20040405,023023,1132213,33.489870,-122.558080,14.221,33.056,NaN,NaN
20040405,023053,1132243,33.489820,-122.558300,14.236,33.052,NaN,NaN
20040405,023122,1132272,33.489770,-122.558500,14.245,33.055,NaN,NaN
20040405,023152,1132302,33.489720,-122.558710,14.253,33.057,NaN,NaN
20040405,023222,1132332,33.489670,-122.558910,14.258,33.059,NaN,NaN
20040405,023252,1132362,33.489620,-122.559110,14.262,33.060,NaN,NaN
20040405,023322,1132392,33.489590,-122.559340,14.267,33.061,NaN,NaN
20040405,023352,1132421,33.489570,-122.559570,14.269,33.061,NaN,NaN
20040405,023422,1132452,33.489530,-122.559800,14.273,33.061,NaN,NaN
20040405,023452,1132482,33.489490,-122.560040,14.275,33.061,NaN,NaN
20040405,023522,1132512,33.489480,-122.560240,14.277,33.061,NaN,NaN
20040405,023553,1132543,33.489430,-122.560450,14.278,33.060,NaN,NaN
20040405,023623,1132573,33.489390,-122.560640,14.281,33.060,NaN,NaN
20040405,023653,1132603,33.489350,-122.560830,14.283,33.060,NaN,NaN
20040405,023722,1132632,33.489310,-122.561050,14.284,33.061,NaN,NaN
20040405,023752,1132662,33.489270,-122.561300,14.285,33.062,NaN,NaN
20040405,023822,1132692,33.489240,-122.561520,14.287,33.063,NaN,NaN
20040405,023852,1132722,33.489220,-122.561720,14.289,33.062,NaN,NaN
20040405,023923,1132753,33.489180,-122.561920,14.292,33.061,NaN,NaN
20040405,023953,1132783,33.489170,-122.562120,14.295,33.059,NaN,NaN
20040405,024023,1132813,33.489150,-122.562340,14.297,33.058,NaN,NaN
20040405,024054,1132844,33.489120,-122.562540,14.299,33.059,NaN,NaN
20040405,024124,1132874,33.489080,-122.562750,14.301,33.057,NaN,NaN
20040405,024154,1132904,33.489050,-122.562940,14.301,33.058,NaN,NaN
20040405,024224,1132934,33.489020,-122.563140,14.303,33.058,NaN,NaN
20040405,024254,1132964,33.489000,-122.563350,14.304,33.060,NaN,NaN
20040405,024324,1132994,33.488970,-122.563560,14.306,33.062,NaN,NaN
20040405,024354,1133024,33.488940,-122.563770,14.308,33.063,NaN,NaN
20040405,024424,1133054,33.488920,-122.563980,14.310,33.063,NaN,NaN
20040405,024454,1133083,33.488890,-122.564180,14.312,33.063,NaN,NaN
20040405,024524,1133114,33.488840,-122.564380,14.313,33.064,NaN,NaN
20040405,024554,1133144,33.488820,-122.564590,14.315,33.064,NaN,NaN
20040405,024624,1133174,33.488800,-122.564790,14.316,33.065,NaN,NaN
20040405,024654,1133204,33.488780,-122.565010,14.315,33.065,NaN,NaN
20040405,024724,1133234,33.488750,-122.565210,14.312,33.062,NaN,NaN
20040405,024754,1133263,33.488730,-122.565360,14.286,33.062,NaN,NaN
20040405,024824,1133294,33.488680,-122.565490,14.257,33.063,NaN,NaN
20040405,024854,1133324,33.488620,-122.565610,14.245,33.063,NaN,NaN
20040405,024924,1133354,33.488550,-122.565690,14.223,33.063,NaN,NaN
20040405,024954,1133384,33.488460,-122.565770,14.171,33.063,NaN,NaN
20040405,025024,1133414,33.488360,-122.565820,14.155,33.064,NaN,NaN
20040405,025054,1133444,33.488280,-122.565860,14.168,33.064,NaN,NaN
20040405,025124,1133474,33.488170,-122.565890,14.181,33.064,NaN,NaN
20040405,025154,1133504,33.488050,-122.565910,14.193,33.064,NaN,NaN
20040405,025224,1133534,33.487920,-122.565920,14.201,33.064,NaN,NaN
20040405,025254,1133564,33.487790,-122.565920,14.205,33.064,NaN,NaN
20040405,025324,1133593,33.487670,-122.565900,14.211,33.064,NaN,NaN